User: anonymous   Login
Location: Harwich
(41.7160°N, 69.9939°W)
Time: 14:55:36
(UTC+02:00)
Language:

TIGRISAT - Orbit

View from above orbital plane
View from above orbital plane
View from above satellite
View from above satellite

Ground track
Ground track

The orbit data is extracted from the following two-line orbital elements,

1 40043U 14033AK  24260.38373813  .00005860  00000-0  76314-3 0  9995
2 40043  97.7050  59.2768 0054454   7.4698 352.7313 14.79927141550946
Epoch (UTC): 16 September 2024 09:12:34
Eccentricity: 0.0054454
inclination: 97.7050°
perigee height: 591 km
apogee height: 668 km
right ascension of ascending node: 59.2768°
argument of perigee: 7.4698°
revolutions per day: 14.79927141
mean anomaly at epoch: 352.7313°
orbit number at epoch: 55094

The dashed part of the orbit path shows where the satellite is in the earth's shadow,  

DLR